AirNav   Everest Fuels
 
 1235 users online  

8Y5 Clarissa Municipal Airport
Clarissa, Minnesota, USA

GOING TO CLARISSA?


FAA INFORMATION EFFECTIVE 21 MAY 2020

Location

FAA Identifier: 8Y5
Lat/Long: 46-06-46.8700N 094-54-24.0830W
46-06.781167N 094-54.401383W
46.1130194,-94.9066897
(estimated)
Elevation: 1308 ft. / 399 m (estimated)
Variation: 04E (1985)
From city: 2 miles SE of CLARISSA, MN
Time zone: UTC -5 (UTC -6 during Standard Time)
Zip code: 56438

Airport Operations

Airport use: Open to the public
Activation date: 06/1956
Control tower: no
ARTCC: MINNEAPOLIS CENTER
FSS: PRINCETON FLIGHT SERVICE STATION
NOTAMs facility: PNM (NOTAM-D service available)
Attendance: UNATNDD
Wind indicator: yes
Segmented circle: no

Airport Communications

CTAF: 122.9
WX AWOS-3 at 14Y (13 nm S): 118.650 (320-732-3508)
WX AWOS-3 at SAZ (17 nm N): 118.325 (218-894-3666)

Nearby radio navigation aids

VOR radial/distance  VOR name  Freq  Var
AXNr049/16.4ALEXANDRIA VOR/DME112.8007E

 
NDB name  Hdg/Dist  Freq  Var  ID
STAPLES194/16.725701ESAZ ... .- --..
RIPLEY272/23.540403EXCR -..- -.-. .-.
LITTLE FALLS290/25.535903ELXL .-.. -..- .-..
GLENWOOD028/33.034603EGHW --. .... .--

Airport Services

Parking: tiedowns
Airframe service: NONE
Powerplant service: NONE
Bottled oxygen: NONE
Bulk oxygen: NONE

Runway Information

Runway 10/28

Dimensions: 2600 x 200 ft. / 792 x 61 m
Surface: turf, in good condition
Runway edge markings: 10/28 EDGES MARKED WITH YELLOW CONES.
RUNWAY 10  RUNWAY 28
Latitude: 46-06.831000N46-06.731000N
Longitude: 094-54.700500W094-54.102167W
Elevation: 1307.0 ft.1307.0 ft.
Traffic pattern: leftleft
Runway end identifier lights: nono
Obstructions: 21 ft. brush, 121 ft. from runway, 105 ft. left of centerline, 5:1 slope to clear32 ft. trees, 255 ft. from runway, 132 ft. right of centerline, 8:1 slope to clear

Airport Ownership and Management from official FAA records

Ownership: Publicly-owned
Owner: CITY OF CLARISSA
CITY HALL, P.O. BOX 396
CLARISSA, MN 56440
Phone 218-756-2125
Manager: SUE KENT
202 W MAIN ST.
CLARISSA, MN 56440
Phone (218) 756-2125

Airport Operational Statistics

Aircraft based on the field: 1
Single engine airplanes: 1
    
Aircraft operations: avg 69/month *
54% local general aviation
46% transient general aviation
* for 12-month period ending 30 September 2019

Additional Remarks

RY 10/28 NOT PLOWED WINTER MONTHS.
FOR CD CTC MINNEAPOLIS ARTCC AT 651-463-5588.

Instrument Procedures

There are no published instrument procedures at 8Y5.

Some nearby airports with instrument procedures:

14Y - Todd Field Airport (13 nm S)
KSAZ - Staples Municipal Airport (17 nm N)
KRYM - Ray S Miller Army Airfield (23 nm E)
KADC - Wadena Municipal Airport (24 nm NW)
D39 - Sauk Centre Municipal Airport (24 nm S)
 
Loc | Ops | Rwys | IFR | FBO | Links
Com | Nav | Svcs | Stats | Notes
Area around 8Y5 (Clarissa Municipal Airport)
 
Road maps at: MapQuest Bing Google
 
Aerial photo
WARNING: Photo may not be current or correct
Aerial photo of 8Y5 (Clarissa Municipal Airport)
Do you have a better or more recent aerial photo of Clarissa Municipal Airport that you would like to share? If so, please send us your photo.

 
Sectional chart

 
Airport distance calculator
Flying to Clarissa Municipal Airport? Find the distance to fly.

From to 8Y5

Sunrise and sunset
Times for 26-May-2020
 Local
(UTC-5)
 Zulu
(UTC)
Morning civil twilight04:5909:59
Sunrise05:3610:36
Sunset20:5701:57
Evening civil twilight21:3402:34

Current date and time
Zulu (UTC)  26-May-2020 13:52:33
Local (UTC-5)  26-May-2020 08:52:33
 
METAR
K14Y 
13nm S 
118.65 320-732-3508
261335Z AUTO 19007KT 4SM BR OVC009 18/17 A2983 RMK AO2
KSAZ 
16nm N 
261255Z AUTO 18005KT 5SM BR OVC008 18/17 A2982 RMK AO2 P0006 P0006
KRYM 
23nm E 
261256Z AUTO 17004KT 10SM OVC008 19/18 A2983 RMK AO2 SLP101 T01880179 $
KADC 
24nm NW 
261336Z AUTO 00000KT 4SM DZ OVC003 16/16 A2981 RMK AO2 P0002 P0002
KD39 
24nm S 
261335Z AUTO 22004KT 4SM BR BKN006 OVC014 17/17 A2983 RMK AO2 T01720167
KAXN 
25nm SW 
261339Z AUTO 26007KT 2 1/2SM -RA BR OVC003 16/16 A2984 RMK AO2 RAE07B39 P0001 T01610156 $
KLXL 
26nm E 
261335Z AUTO 16006KT 10SM SCT009 BKN014 OVC024 19/19 A2983 RMK AO2
TAF
KAXN 
25nm SW 
261139Z 2612/2712 33005KT 6SM -SHRA BR OVC016 TEMPO 2612/2614 BKN005 FM261400 32006KT 4SM BR OVC012 FM261800 31007KT P6SM OVC022 FM262100 28005KT P6SM BKN035 FM270800 27003KT 6SM BR SKC
NOTAMs
Click for the latest NOTAMs
NOTAMs are issued by the DoD/FAA and will open in a separate window not controlled by AirNav.

 

 
 

Would you like to see your business listed on this page?

 If your business provides an interesting product or service to pilots, flight crews, aircraft, or users of the Clarissa Municipal Airport, you should consider listing it here.  To start the listing process, click on the button below
 
Add a business
 

Other Pages about Clarissa Municipal Airport

Update a link
 
Copyright © AirNav, LLC. All rights reserved. Privacy Policy  Contact